User: anonymous   Login
Location: PACMO
(41.3967°N, 90.3760°W)
Time: 13:51:59
(UTC-06:00)
Language:

NOAA 19 - Orbit

View from above orbital plane
View from above orbital plane
View from above satellite
View from above satellite

Ground track
Ground track

The orbit data is extracted from the following two-line orbital elements,

1 33591U 09005A   17060.50299778  .00000089  00000-0  73314-4 0  9995
2 33591  99.0792  25.8779 0013376 211.9167 148.1194 14.12157198415461
Epoch (UTC): 01 March 2017 12:04:19
Eccentricity: 0.0013376
inclination: 99.0792°
perigee height: 842 km
apogee height: 861 km
right ascension of ascending node: 25.8779°
argument of perigee: 211.9167°
revolutions per day: 14.12157198
mean anomaly at epoch: 148.1194°
orbit number at epoch: 41546

The dashed part of the orbit path shows where the satellite is in the earth's shadow,  

DLR